This is the latest recevied weather packets stored in our database for station/object W6JCZ-13. If no packets are shown the sender has not sent any weather packets the latest 10 day(s).
| Time | Temp. | Humidity | Pressure | Rain* | Wind** | Luminosity | Snow |
|---|---|---|---|---|---|---|---|
| 1777927516 | 16.11° C | 73% | 1012.9 hPa | 0 mm | - | - | - |
| 1777926916 | 16.11° C | 74% | 1013.1 hPa | 0 mm | - | - | - |
| 1777926316 | 16.11° C | 74% | 1013.3 hPa | 0 mm | - | - | - |
| 1777925716 | 16.11° C | 74% | 1013.3 hPa | 0.25 mm | - | - | - |
| 1777925116 | 16.11° C | 74% | 1013.3 hPa | 0.25 mm | - | - | - |
| 1777924516 | 16.11° C | 73% | 1013.3 hPa | 0.25 mm | - | - | - |
| 1777923916 | 16.11° C | 76% | 1013.4 hPa | 0.25 mm | - | - | - |
| 1777923315 | 16.11° C | 76% | 1013.2 hPa | 0.25 mm | - | - | - |
| 1777922716 | 16.11° C | 74% | 1013.3 hPa | 0.25 mm | - | - | - |
| 1777922115 | 16.11° C | 75% | 1013.5 hPa | 0 mm | - | - | - |
| 1777921516 | 15.56° C | 75% | 1013.4 hPa | 0 mm | - | - | - |
| 1777920916 | 15.56° C | 73% | 1013.3 hPa | 0 mm | - | - | - |
| 1777920316 | 15.56° C | 71% | 1013.4 hPa | 0 mm | - | - | - |
| 1777919716 | 16.11° C | 69% | 1013.3 hPa | 0 mm | - | - | - |
| 1777919115 | 16.11° C | 69% | 1013.3 hPa | 0 mm | - | - | - |
| 1777918516 | 16.11° C | 69% | 1013.3 hPa | 0 mm | - | - | - |
| 1777917915 | 16.11° C | 68% | 1013.1 hPa | 0 mm | - | - | - |
| 1777917315 | 16.11° C | 68% | 1013.2 hPa | 0 mm | - | - | - |
| 1777916716 | 16.11° C | 69% | 1013.2 hPa | 0 mm | - | - | - |
| 1777916116 | 16.11° C | 69% | 1013.2 hPa | 0 mm | - | - | - |
| 1777915516 | 16.67° C | 68% | 1013 hPa | 0 mm | - | - | - |
| 1777914915 | 16.67° C | 69% | 1013.1 hPa | 0 mm | - | - | - |
| 1777914316 | 17.22° C | 68% | 1013.1 hPa | 0 mm | - | - | - |
| 1777913716 | 17.22° C | 67% | 1013 hPa | 0 mm | - | - | - |
| 1777913116 | 16.67° C | 70% | 1013 hPa | 0 mm | - | - | - |
* Rain latest hour (hover to see other rain measurements)
** Current wind speed in m/s (hover to see current wind gust speed)